Location: Bonneuil
(46.1010°N, 2.9693°E)
Time: 11:40:03
(UTC+00:00)

Landsat 7 - Pass Details

Date: 09 April 2020
Orbit: 701 x 703 km, 98.1° (Epoch: 04 June)

Event Time Altitude Azimuth Distance (km) Brightness Sun altitude
Exits shadow 21:25:44 54° 251° (WSW) 855 4.2 -27.1°
Maximum altitude 21:25:55 54° 260° (W) 852 4.3 -27.1°
Drops below altitude 10° 21:30:36 10° 338° (NNW) 2,180 7.2 -27.6°
Sets 21:32:55 0° 343° (NNW) 3,103 8.2 -27.9°
